Regional Weather Roundup
Issued by NWS Wakefield, VA

Home | Current Version | Previous Version | Text Only | Print | Product List | Glossary Off
Versions: 1 2 3 4 5 6 7 8 9 10 11 12 13 14 15 16 17 18 19 20 21 22 23 24 25 26 27 28

000
ASUS41 KAKQ 250315
RWRAKQ

REGIONAL WEATHER ROUNDUP
NATIONAL WEATHER SERVICE WAKEFIELD VA
1100 PM EDT WED AUG 24 2016

Note: "fair" indicates few or no clouds below 12,000 feet with no
significant weather and/or obstructions to visibility. * = Denotes
station may not report precipitation (e.g., rain,snow,etc.),
thunder or fog.

VAZ042-051-052>054-056-250400-
NORTHERN VIRGINIA

CITY           SKY/WX    TMP DP  RH WIND       PRES   REMARKS
WASH NATIONAL  CLEAR     76  62  62 S13       30.19S
DULLES         PTCLDY    73  63  70 S7        30.18S
FORT BELVOIR   CLEAR     73  62  70 SE5       30.18S
QUANTICO       CLEAR     77  65  66 S20       30.19S
FREDERICKSBRG* CLEAR     72  64  74 S8        30.18S
STAFFORD*      CLEAR     70  62  75 S3        30.23S
WARRENTON      CLEAR     74  61  65 SE5       30.18S
CULPEPER*      MOCLDY    69  68  96 CALM      30.19S
MANASSAS*      CLEAR     72  68  88 S5        30.18S
LEESBURG*      CLEAR     77  68  73 S9        30.19S
WINCHESTER     CLEAR     73  66  78 S3        30.17R
FRONT ROYAL*   FAIR      73  66  78 CALM      30.16S
LURAY*         FAIR      72  68  88 S3        30.18S
$$

VAZ048-049-060>072-079>083-250400-
CENTRAL AND SOUTH CENTRAL VIRGINIA

CITY           SKY/WX    TMP DP  RH WIND       PRES   REMARKS
RICHMOND       PTCLDY    71  61  70 SE7       30.20F
CHESTERFIELD*  FAIR      70  52  52 SE6       30.21F
PETERSBURG*    CLEAR     69  65  85 SE3       30.21S
HANOVER        CLEAR     70  61  73 CALM      30.22S
TAPPAHANNOCK*  CLEAR     70  61  73 SE5       30.21F
QUINTON*       FAIR      69  63  80 S3        30.20F
CHARLOTTSVILLE MOCLDY    74  68  81 CALM      30.19S
GORDONSVILLE*  NOT AVBL
ORANGE*          N/A     70  70 100 CALM      30.21S
LOUISA*        CLEAR     73  70  88 CALM      30.19S
BUMPASS*       FAIR      69  66  89 CALM      30.20R
FARMVILLE*     CLEAR     71  69  93 CALM      30.19S
CREWE*         FAIR      67  67 100 CALM      30.21S
FORT PICKETT*  NOT AVBL
CHASE CITY*    FAIR      68  67  94 CALM      30.21F
CLARKSVILLE*   FAIR      70  68  94 CALM      30.21S
SOUTH HILL*    CLEAR     64  63  97 CALM      30.27S
LAWRENCEVILLE* FAIR      66  65  95 CALM      30.21S
EMPORIA*       CLEAR     64  64 100 E3        30.23S
$$

VAZ088>098-250400-
SOUTHEAST VIRGINIA

CITY           SKY/WX    TMP DP  RH WIND       PRES   REMARKS
NORFOLK        CLEAR     73  67  81 S3        30.21F
VIRGINIA BEACH PTCLDY    75  66  73 CALM      30.20F
NORFOLK NAVAL  CLEAR     73  66  78 SE5       30.22S
WEST POINT*    PTCLDY    69  63  81 SE5       30.21F
SALUDA*        FAIR      69  64  84 SE3       30.20F
NEWPORT NEWS   CLEAR     67  65  93 CALM      30.21F
LANGLEY AFB    CLEAR     73  67  81 S5        30.20F
FORT EUSTIS    CLEAR     71  66  82 SE2       30.18F
WILLIAMSBURG*  CLEAR     73  68  83 S8        30.21F
HR EXEC AP*    FAIR      63  57  82 CALM      30.23F
FRANKLIN*      CLEAR     70  65  84 CALM      30.22S
US460-WAKEFLD  CLEAR     67  62  84 CALM      30.21S
$$

VAZ020-022-025-037-045-250400-
WEST CENTRAL AND SOUTHWEST VIRGINIA

CITY           SKY/WX    TMP DP  RH WIND       PRES   REMARKS
STAUNTON*      CLEAR     70  66  87 CALM      30.23S
WAYNESBORO*    FAIR      73  66  80 S6        30.22F
HOT SPRINGS VA CLOUDY    67  65  91 SW9       30.32F
LYNCHBURG      MOCLDY    73  67  81 S5        30.22F
DANVILLE       PTCLDY    71  67  87 CALM      30.22R
SOUTH BOSTON*  FAIR      70  68  95 CALM      30.21S
MARTINSVILLE   PTCLDY    70  68  94 CALM      30.24F
ROANOKE        CLOUDY    75  69  81 SE6       30.23S
BLACKSBURG     MOCLDY    70  68  94 CALM      30.30S
DUBLIN*        PTCLDY    71  69  94 CALM      30.28S
MARION*        MOCLDY    68  67  96 CALM      30.32S FOG
HILLSVILLE*    MOCLDY    68  68  98 S5        30.29S
RICHLANDS*     FAIR      71  67  88 S5        30.29S
WISE*          PTCLDY    72  61  68 S5        30.30S
ABINGDON*      PTCLDY    71  69  92 CALM      30.26S
$$

MDZ021>025-VAZ099-100-250400-
SOUTHERN MARYLAND AND THE DELMARVA PENINSULA

CITY           SKY/WX    TMP DP  RH WIND       PRES   REMARKS
PATUXENT RIVER CLEAR     72  62  71 S7        30.19F
BAY BRIDGE APT CLEAR     77  63  61 S10       30.18S
LEONARDTOWN    CLEAR     70  61  73 S3        30.21F
DOVER          CLEAR     69  68  94 S8        30.19S
GEORGETOWN     CLEAR     68  62  81 S7        30.22S
EASTON         CLEAR     72  67  85 S7        30.23F
CAMBRIDGE      CLEAR     66  63  88 SE5       30.20S
SALISBURY      CLEAR     64  61  90 CALM      30.21F
OCEAN CITY     CLEAR     74  62  66 S3        30.21F
WALLOPS ISLAND CLEAR     71  60  68 S6        30.22F
ACCOMACK*      PTCLDY    64  60  87 CALM      30.21F
$$

NCZ012>017-030>032-250400-
NORTH CENTRAL AND EASTERN NORTH CAROLINA

CITY           SKY/WX    TMP DP  RH WIND       PRES   REMARKS
ROANOKE RAPIDS FAIR      64  64 100 CALM      30.21S
RALEIGH        MOCLDY    70  65  84 CALM      30.22S
ELIZABETH CITY CLEAR     73  69  87 E5        30.22S
AHOSKIE*       CLEAR     66  65  94 CALM      30.22S
EDENTON*       CLEAR     73  73 100 CALM      30.22S
CURRITUCK*       N/A     71  70  96 CALM      30.22S
KILL DEVIL HLS CLEAR     74  70  89 CALM      30.21S
MANTEO         CLEAR     74  70  88 CALM      30.22S
CAPE HATTERAS  CLEAR     75  67  76 E6        30.21S
TARBORO*       FAIR      67  67  98 CALM      30.22S FOG
GOLDSBORO      PTCLDY    73  67  82 N1        30.19S
WASHINGTON     PTCLDY    71  67  87 CALM      30.21F
GREENVILLE     PTCLDY    72  66  83 SE5       30.21F
NEW BERN       MOCLDY    76  71  85 CALM      30.22R
WILMINGTON     CLOUDY    74  66  76 N3        30.19F
$$

VAZ048-250400-
ELSEWHERE

CITY           SKY/WX    TMP DP  RH WIND       PRES   REMARKS
HARRISBURG PA  MOCLDY    75  67  76 S7        30.15F
BALTIMORE      PTCLDY    73  60  63 S5        30.18S
ANNAPOLIS      CLEAR     76  62  62 S6        30.18S
ANDREWS AFB    CLEAR     70  61  72 S9        30.18S
PHILADELPHIA   PTCLDY    73  63  70 S9        30.20S
HENDERSON NC   CLEAR     68  63  82 CALM      30.22S
GREENSBORO     MOCLDY    74  64  71 S7        30.22S
ROCKY MOUNT    CLEAR     68  66  93 CALM      30.21S
$$

VAZ100-250400-
MARINE

STATION/POSITION TIME  TEMP    WIND        PRES    WAVE   SWELL
                       AIR SEA DIR/SP/G            HT/PER HT/PER
                 (UTC) (F)     (DEG/KT/KT) (MB)    (FT/S) (FT/S)
BRANDYWINE LGT   0200   74                   N/A
CAPE MAY NJ      0200   72 74              1022.5F
LEWES DE         0200   72 75              1022.9F
OCEAN-CITY-INLET 0200   74 76              1023.7S
WACHAPREAGUE VA  0200   73 82              1023.4F
THOMAS POINT MD  0300   79 81  190/ 18/ 19 1023.2F
GOOSES REEF MD   0300   79 83  200/ 16/ 17 1022.6F   1/ 3
COVE POINT MD    0200   76                 1023.2R
SOLOMONS ISLAND  0200   76 84                N/A
BISHOPS HEAD MD  0200   77 82              1022.9F
PINEY POINT MD   0230          200/ 12/ 14   N/A
POTOMAC MD       0300   78 83  190/ 12/ 16 1021.8S   1/ 3
CAMBRIDGE MD     0200   72 84              1022.0S
LEWISETTA VA     0200   74 82              1022.3S
RAPPAHANNOCK LGT 0200                      1023.7F
STINGRAY PT      0300   78 83  110/ 10/ 14 1023.2F   2/ 3
YORK RVR RNG VA  0200   77                 1022.5F
YORKTOWN VA      0200   75 83              1022.6F
JAMESTOWN VA     0300   76 85  150/ 10/ 10   N/A     0
DOMINION TERM VA 0200   77                 1023.0F
KIPTOPEKE VA     0200      79                N/A
CHES BAY BRIDGE  0200   76 80              1023.0F
CAPE HENRY VA    0200   75                   N/A
WILLOUBY STN VA  0200   76                   N/A
CAPE HENRY BUOY  0212      79                N/A     2/11   2/11
1ST LANDING BUOY 0300   77 78  160/  8/ 10 1022.8F   2/ 4
CAPE CHARLES BUO 0226      78                N/A     2/11   2/11
OFFSHORE WE BUOY 0221      80                N/A     3/11   2/11
64NM E OF VA BCH 0250   78 81  110/  8/ 10 1022.9F   3/11   2/11
DUCK PIER NC     0200   78 79              1022.6S
44100 DUCK FRF   0205      80                N/A     3/11   2/11
44056 DUCK FRF   0211      78                N/A     3/12   2/12
OREGON INLET NC  0200   77 79              1023.2R
HATTERAS NC      0200   77 80              1022.7R
DIAMOND SHLS NC  0250   81 84   90/ 14/ 17 1022.6F   3/11   2/11
CAPE LOOKOUT NC  0300   81     100/ 12/ 14 1022.2S
$$




USA.gov is the U.S. government's official web portal to all federal, state and local government web resources and services.